www.pogodaiklimat.ru

Погода и климат >> Архив погоды >> Венгрия >> Veszprem


ПОГОДА в Veszprem

  • Прогноз погоды в Veszprem
  • Монитор погоды в Veszprem
  • Климат города

АРХИВ ПОГОДЫ в Veszprem

Время (UTC), дата Ветер
(напр.,м/с)
 
Видим.   Явления Облачность Т
(С)
Тd
(С)
f
(%)
Тe
(С)
Тes
(С)
Комфортность P
(гПа)
Po
(гПа)
Тmin
(С)
Tmax
(С)
R
(мм)
R24
(мм)
S
(см)
22 6.12 Ю 2 н/о н/о +1.2 -0.4 89 -2 -2 1026.4 991.0
23 6.12 Ю 2 н/о н/о +1.4 -0.8 85 -2 -2 1026.0 990.7
00 7.12 Ю 2 н/о н/о +1.4 -0.8 85 -2 -2 1025.4 990.1
02 7.12 ЮЗ 1 н/о н/о +1.9 -1.0 81 0 0 1024.7 989.5
01 7.12 Ю 2 н/о н/о +1.7 -1.0 82 -2 -2 1024.9 989.6
03 7.12 штиль 0 н/о н/о +1.5 -1.1 83 0 0 1024.2 988.9
04 7.12 штиль 0 н/о н/о +1.5 -1.1 83 0 0 1023.8 988.6
05 7.12 Ю 2 н/о н/о +1.4 -0.8 85 -2 -2 1023.4 988.2
06 7.12 Ю 2 н/о н/о +1.3 -0.9 85 -2 -2 1022.8 987.6 +0.9
08 7.12 З 2 н/о н/о +1.9 -0.5 84 -1 -1 1022.1 987.0
07 7.12 ЮЗ 2 н/о н/о +1.5 -0.7 85 -2 -2 1022.5 987.3
09 7.12 Ю 1 н/о н/о +2.6 -0.2 82 +1 +1 1021.6 986.6
10 7.12 З 1 н/о н/о +3.9 +0.6 79 +3 +3 1021.0 986.2
11 7.12 ЮЗ 1 н/о н/о +5.5 +1.4 75 +4 +4 1019.9 985.3
12 7.12 ЮЗ 2 н/о н/о +6.5 +1.2 69 +4 +4 1018.7 984.3
14 7.12 Ю 4 н/о н/о +6.3 +1.2 70 +3 +3 1017.5 983.1
13 7.12 Ю 3 н/о н/о +6.4 +0.9 68 +4 +4 1018.0 983.6
15 7.12 Ю 2 н/о н/о +5.2 +1.0 74 +3 +3 1017.1 982.5
16 7.12 В 1 н/о н/о +3.8 +0.7 80 +2 +2 1016.6 981.9
17 7.12 Ю 2 н/о н/о +2.7 +0.1 83 -0 -0 1015.8 981.0
18 7.12 ЮВ 1 н/о н/о +2.9 +0.5 84 +1 +1 1014.9 980.1 +6.8
21 7.12 С 1 н/о н/о +0.1 -0.9 93 -2 -2 1012.4 977.4
00 8.12 штиль 0 н/о н/о -0.2 -0.9 95 -2 -2 1010.5 975.5
02 8.12 С 1 н/о н/о +0.4 -0.2 96 -2 -2 1010.5 975.6
01 8.12 СВ 1 н/о н/о +0.1 -0.5 96 -2 -2 1010.7 975.7
03 8.12 СЗ 1 н/о н/о +0.6 +0.2 97 -2 -2 1010.3 975.4
04 8.12 СЗ 2 н/о н/о +0.9 +0.5 97 -3 -3 1010.2 975.4
05 8.12 С 1 н/о н/о +1.4 +1.0 97 -1 -1 1010.2 975.4
06 8.12 СЗ 2
{8}
н/о н/о +5.8 +4.8 93 +3 +3 1010.0 975.8 -1.3 4
08 8.12 СЗ 8
{13}
н/о н/о +7.3 +3.7 78 +2 +2 1011.5 977.4
07 8.12 СЗ 4 н/о н/о +6.5 +4.5 87 +3 +3 1010.9 976.7
09 8.12 С 8 н/о н/о +8.1 +3.0 70 +4 +4 1011.2 977.2
10 8.12 С 9
{15}
н/о н/о +7.9 +2.8 70 +3 +3 1011.7 977.7
11 8.12 С 8
{14}
н/о н/о +7.6 +1.7 66 +3 +3 1012.1 978.0
12 8.12 С 10
{15}
н/о н/о +7.6 +1.0 63 +3 +3 1012.2 978.1
14 8.12 СЗ 8
{14}
н/о н/о +7.2 +0.2 61 +3 +3 1013.1 978.9
13 8.12 СЗ 8
{14}
н/о н/о +7.4 +0.4 61 +3 +3 1012.5 978.4
15 8.12 СЗ 5 н/о н/о +6.6 +0.1 63 +3 +3 1013.6 979.3
16 8.12 СЗ 3
{8}
н/о н/о +5.9 0.0 66 +3 +3 1014.0 979.6
17 8.12 З 3 н/о н/о +3.4 -1.4 71 -0 -0 1014.5 979.8
18 8.12 З 1 н/о н/о +2.5 -1.3 76 +1 +1 1014.6 979.8 +8.2
20 8.12 ЮЗ 3 н/о н/о +2.8 +0.9 87 -1 -1 1014.1 979.4
19 8.12 З 3 н/о н/о +3.9 +0.6 79 0 0 1014.5 979.9
21 8.12 ЮЗ 3 н/о н/о +1.5 0.0 90 -3 -3 1014.3 979.4
22 8.12 З 5
{7}
н/о н/о +3.5 +1.9 89 -2 -2 1014.1 979.4
23 8.12 З 4
{7}
н/о н/о +3.5 +0.4 80 -1 -1 1013.5 978.9
00 9.12 З 5 н/о н/о +4.3 +0.1 74 -0 -0 1012.5 978.0
02 9.12 ЮЗ 4 н/о н/о +3.5 -0.7 74 -1 -1 1011.0 976.4
01 9.12 ЮЗ 3 н/о н/о +2.7 -0.9 77 -1 -1 1011.8 977.1
03 9.12 Ю 4 н/о н/о +0.8 -0.6 90 -5 -5 1010.4 975.5
04 9.12 ЮЗ 4
{7}
н/о н/о +0.8 -0.2 93 -5 -5 1009.7 974.9
05 9.12 ЮЗ 4 н/о н/о +2.5 +0.4 86 -2 -2 1008.7 974.1
06 9.12 ЮЗ 8 н/о н/о +2.6 0.0 83 -4 -4 1007.3 972.8 +0.7
08 9.12 ЮЗ 6
{9}
н/о н/о +3.7 -0.5 74 -2 -2 1006.0 971.6
07 9.12 ЮЗ 4
{10}
н/о н/о +2.9 -0.2 80 -2 -2 1006.9 972.4
09 9.12 ЮЗ 5 н/о н/о +4.1 -0.9 70 -1 -1 1005.4 971.1
10 9.12 ЮЗ 5
{8}
н/о н/о +4.0 -0.2 74 -1 -1 1006.1 971.8
11 9.12 З 1 н/о н/о +5.0 +0.4 72 +4 +4 1005.5 971.3
12 9.12 ЮЗ 6
{8}
н/о н/о +6.3 +1.0 69 +2 +2 1004.0 970.0
14 9.12 ЮЗ 3
{7}
н/о н/о +5.5 +1.2 74 +2 +2 1004.6 970.5
13 9.12 З 5
{7}
н/о н/о +6.2 +1.5 72 +2 +2 1004.2 970.2
15 9.12 З 2 н/о н/о +4.9 +0.8 75 +2 +2 1005.0 970.8
16 9.12 З 3 н/о н/о +4.3 +0.3 75 +1 +1 1005.3 971.0
17 9.12 СЗ 2 н/о н/о +3.4 +0.1 79 +1 +1 1005.2 970.8
18 9.12 ЮЗ 2 н/о н/о +3.8 +0.1 77 +1 +1 1005.4 971.1 +6.6
20 9.12 З 3 н/о н/о +5.7 +0.9 71 +3 +3 1006.0 971.9
19 9.12 З 4 н/о н/о +6.4 +1.3 70 +3 +3 1005.6 971.6
21 9.12 З 3 н/о н/о +5.4 +1.1 74 +2 +2 1006.5 972.3
22 9.12 З 4 н/о н/о +5.9 +1.4 73 +2 +2 1006.5 972.4
23 9.12 З 3
{7}
н/о н/о +6.7 +1.2 68 +4 +4 1006.9 972.9
00 10.12 З 5 н/о н/о +5.9 +2.0 76 +2 +2 1007.6 973.5
02 10.12 СЗ 5
{8}
н/о н/о +6.1 +2.6 78 +2 +2 1008.3 974.2
01 10.12 СЗ 4
{8}
н/о н/о +6.6 +2.9 77 +3 +3 1008.1 974.0
03 10.12 СЗ 6 н/о н/о +6.1 +2.2 76 +2 +2 1008.9 974.7
04 10.12 СЗ 6
{12}
н/о н/о +5.6 +2.1 78 +1 +1 1008.9 974.7
05 10.12 СЗ 7
{10}
н/о н/о +5.6 +1.9 77 0 0 1009.5 975.3
06 10.12 СЗ 8 н/о н/о +5.3 +1.2 75 -0 -0 1010.1 975.8 +3.4 0.4
08 10.12 СЗ 10
{16}
н/о н/о +5.6 -0.5 65 -0 -0 1012.2 977.9
07 10.12 СЗ 10
{15}
н/о н/о +5.1 +1.0 75 -1 -1 1011.4 977.0
09 10.12 СЗ 10 н/о н/о +6.0 +0.5 68 0 0 1013.0 978.7
10 10.12 СЗ 9
{14}
н/о н/о +6.2 +0.3 66 +1 +1 1013.2 978.9
11 10.12 СЗ 10
{15}
н/о н/о +6.2 -0.3 63 +1 +1 1013.7 979.4
12 10.12 СЗ 9 н/о н/о +6.3 -0.7 61 +1 +1 1013.8 979.5
14 10.12 СЗ 9
{15}
н/о н/о +5.7 -0.4 65 0 0 1014.3 979.9
13 10.12 СЗ 8
{13}
н/о н/о +6.3 -0.9 60 +1 +1 1013.8 979.5
15 10.12 СЗ 6
{14}
н/о н/о +4.6 -1.0 67 -0 -0 1015.2 980.6
16 10.12 СЗ 5
{10}
н/о н/о +3.4 -1.2 72 -2 -2 1015.4 980.7
17 10.12 СЗ 6
{10}
н/о н/о +2.2 +0.1 86 -4 -4 1016.2 981.3
18 10.12 СЗ 4
{8}
н/о н/о +1.6 -0.2 88 -4 -4 1015.9 980.9 +6.6 0.5
20 10.12 СЗ 6
{10}
н/о н/о +2.1 -1.5 77 -4 -4 1016.2 981.3
19 10.12 СЗ 6
{10}
н/о н/о +2.4 -0.5 81 -3 -3 1016.1 981.2
21 10.12 СЗ 6 н/о н/о +2.0 -1.6 77 -4 -4 1016.2 981.3
22 10.12 СЗ 4
{8}
н/о н/о +1.2 -2.0 79 -4 -4 1016.1 981.1
23 10.12 СЗ 4
{8}
н/о н/о +1.1 -2.3 78 -4 -4 1016.3 981.3
00 11.12 СЗ 4
{7}
н/о н/о +1.0 -2.4 78 -4 -4 1015.9 980.9
02 11.12 СЗ 4
{7}
н/о н/о +1.0 -2.6 77 -4 -4 1016.7 981.6
01 11.12 СЗ 4 н/о н/о +0.7 -2.9 77 -4 -4 1016.3 981.2
03 11.12 СЗ 5 н/о н/о +0.5 -2.7 79 -5 -5 1016.3 981.2
04 11.12 СЗ 4
{7}
н/о н/о +0.3 -2.4 82 -5 -5 1016.2 981.1
05 11.12 СЗ 4 н/о н/о +0.3 -2.4 82 -5 -5 1016.4 981.3
06 11.12 З 4 н/о н/о -0.1 -2.8 82 -6 -6 1016.2 981.0 -0.1
08 11.12 СЗ 6
{8}
н/о н/о +1.3 -1.9 79 -5 -5 1016.6 981.6
07 11.12 СЗ 6
{9}
н/о н/о +0.7 -2.9 77 -6 -6 1016.3 981.2
09 11.12 З 4
{7}
н/о н/о +0.7 -0.6 91 -5 -5 1017.1 982.0
10 11.12 З 4
{7}
н/о н/о +0.9 +0.2 95 -5 -5 1016.9 981.8
11 11.12 З 4
{7}
н/о н/о +1.4 +0.7 95 -4 -4 1016.7 981.7
12 11.12 СЗ 6 н/о н/о +2.3 +0.5 88 -4 -4 1016.3 981.4 0.4
14 11.12 З 5
{7}
н/о н/о +1.6 +0.3 91 -4 -4 1016.9 981.9
13 11.12 З 5
{8}
н/о н/о +2.2 +0.1 86 -3 -3 1016.4 981.5
15 11.12 З 3 н/о н/о +1.1 +0.2 94 -4 -4 1017.1 982.0
16 11.12 З 4 н/о н/о +2.1 +0.6 90 -3 -3 1017.1 982.2
17 11.12 З 5
{9}
н/о н/о +1.9 +0.1 88 -4 -4 1017.6 982.6
18 11.12 З 5
{8}
н/о н/о +0.6 -0.1 95 -6 -6 1017.8 982.7 +2.8 1
20 11.12 З 6
{8}
н/о н/о +0.7 +0.1 96 -6 -6 1017.8 982.7
19 11.12 З 4
{7}
н/о н/о +0.5 -0.1 96 -5 -5 1018.0 982.8
21 11.12 З 5
{9}
н/о н/о +0.5 -0.1 96 -6 -6 1017.6 982.4
22 11.12 З 5
{9}
н/о н/о +0.9 +0.2 95 -5 -5 1017.4 982.3
23 11.12 СЗ 5
{9}
н/о н/о +1.3 0.0 91 -5 -5 1017.2 982.2
00 12.12 СЗ 6 н/о н/о +1.7 +0.2 90 -5 -5 1017.5 982.5 2
02 12.12 СЗ 6
{8}
н/о н/о +1.3 +0.3 93 -5 -5 1017.7 982.6
01 12.12 СЗ 6
{9}
н/о н/о +1.5 +0.2 91 -5 -5 1017.7 982.7
03 12.12 СЗ 5 н/о н/о +0.6 -0.3 94 -6 -6 1017.7 982.6
04 12.12 СЗ 4
{7}
н/о н/о +0.1 -0.6 95 -6 -6 1017.7 982.5
05 12.12 СЗ 5
{9}
н/о н/о +0.1 -1.0 92 -6 -6 1018.0 982.8
06 12.12 СЗ 6 н/о н/о -0.3 -1.3 93 -7 -7 1018.2 982.9 -0.3 2
08 12.12 СЗ 4 н/о н/о +0.1 -0.9 93 -5 -5 1019.3 984.0
07 12.12 СЗ 2
{8}
н/о н/о -0.5 -1.5 93 -4 -4 1018.9 983.6
09 12.12 СЗ 4 н/о н/о +0.8 -0.6 90 -5 -5 1019.6 984.4
10 12.12 СЗ 3 н/о н/о +1.4 -0.4 88 -3 -3 1019.8 984.7
11 12.12 СЗ 3 н/о н/о +1.5 -0.4 87 -3 -3 1020.0 984.9
12 12.12 СЗ 4 н/о н/о +1.5 -0.7 85 -4 -4 1020.0 984.9
14 12.12 СЗ 4 н/о н/о +2.2 -0.7 81 -3 -3 1020.3 985.3
13 12.12 СЗ 4 н/о н/о +2.1 -0.6 82 -3 -3 1020.0 985.0
15 12.12 СЗ 3 н/о н/о +1.5 -0.4 87 -3 -3 1020.8 985.7
16 12.12 СЗ 2 н/о н/о +1.3 -0.3 89 -2 -2 1021.1 985.9
17 12.12 СЗ 3 н/о н/о +1.0 -0.5 90 -4 -4 1021.1 985.9
18 12.12 С 3 н/о н/о +0.5 -0.5 93 -4 -4 1021.5 986.2 +2.4
20 12.12 С 2 н/о н/о -0.5 -1.8 91 -4 -4 1022.2 986.8
19 12.12 СЗ 2 н/о н/о -1.9 -3.2 91 -6 -6 1022.2 986.6
21 12.12 З 2 н/о н/о -2.0 -3.0 93 -6 -6 1022.6 987.0
22 12.12 З 1 н/о н/о -2.1 -3.1 93 -4 -4 1022.7 987.0
23 12.12 С 3 н/о н/о -2.0 -2.7 95 -7 -7 1023.0 987.3
00 13.12 СЗ 2 н/о н/о -2.0 -2.5 96 -6 -6 1023.0 987.3
02 13.12 штиль 0 н/о н/о -2.5 -3.0 96 -4 -4 1023.1 987.4
01 13.12 З 1 н/о н/о -2.7 -3.4 95 -5 -5 1022.9 987.2
03 13.12 СЗ 1 н/о н/о -3.0 -3.5 96 -5 -5 1022.9 987.1
04 13.12 штиль 0 н/о н/о -3.7 -4.2 96 -5 -5 1022.9 987.0
05 13.12 С 1 н/о н/о -3.9 -4.4 96 -6 -6 1022.8 986.9
06 13.12 штиль 0 н/о н/о -4.3 -4.8 96 -6 -6 1023.0 987.0 -5.1
08 13.12 штиль 0 н/о н/о -2.4 -2.8 97 -4 -4 1023.2 987.5
07 13.12 штиль 0 н/о н/о -4.2 -4.7 96 -5 -5 1023.2 987.2
09 13.12 штиль 0 н/о н/о -1.0 -1.4 97 -2 -2 1022.9 987.4
10 13.12 С 1 н/о н/о -0.6 -1.3 95 -3 -3 1022.8 987.3
11 13.12 В 1 н/о н/о +0.2 -0.8 93 -2 -2 1022.3 986.9
12 13.12 В 1 н/о н/о -0.5 -1.3 94 -3 -3 1022.1 986.7
14 13.12 ЮВ 1 н/о н/о -1.2 -2.0 94 -3 -3 1022.0 986.5
13 13.12 СВ 1 н/о н/о +0.9 -1.2 86 -1 -1 1021.4 986.2
15 13.12 В 1 н/о н/о -2.0 -2.4 97 -4 -4 1022.1 986.5
16 13.12 В 1 н/о н/о -1.9 -2.3 97 -4 -4 1022.3 986.7
17 13.12 С 1 н/о н/о -2.1 -2.5 97 -5 -5 1022.3 986.7
18 13.12 С 1 н/о н/о -2.3 -2.7 97 -5 -5 1022.4 986.7 +1.0
20 13.12 С 2 н/о н/о -2.4 -2.8 97 -7 -7 1022.6 986.9
19 13.12 С 2 н/о н/о -2.3 -2.7 97 -6 -6 1022.4 986.7
21 13.12 штиль 0 н/о н/о -2.8 -3.2 97 -4 -4 1023.2 987.4
22 13.12 СВ 1 н/о н/о -2.4 -2.8 97 -5 -5 1023.2 987.5

 

Местоположение метеостанции Veszprem (Венгрия): широта 47.07 долгота 17.83 высота над уровнем моря 281 м.

В архиве по умолчанию представлена погода в Veszprem за последнюю неделю. Архивные данные за месяц целиком и за предыдущие месяцы, начиная с января 2011 года, Вы можете получить, выбрав интересующий диапазон дат из раскрывающегося списка и нажав кнопку "Ввод!".


*Определитесь, кто Вы:
робот инопланетянин человек

Внимание! Время в таблицах - всемирное. Для получения местного времени необходимо прибавить поправку, которая в Veszprem равна 1 ч.

Смотрите также архив погоды в соседних городах и на ближайших метеорологических станциях:

Погода в Siofok (Венгрия) (24 км)
Погода в Agard (Венгрия) (61 км)
Погода в Sarmellek (Венгрия) (66 км)
Погода в Gyor (Венгрия) (73 км)
Погода в Tata (Венгрия) (74 км)
Погода в Kaposvar (Венгрия) (77 км)
Погода в Zalaegerszeg (Венгрия) (81 км)
Погода в Hurbanovo (Словакия) (93 км)
Погода в Szombathely (Венгрия) (93 км)
Погода в Paks (Венгрия) (95 км)

Пояснения к столбцам:

Ветер - указаны скорость ветра в м/с - средняя за 10 мин, порывы в срок и между сроками (в фигурных скобках) и направление, откуда дует ветер: С - северный, СВ - северо-восточный, В - восточный, ЮВ - юго-восточный, Ю - южный, ЮЗ - юго-западный, З - западный, СЗ - северо-западный.
Видимость - горизонтальная дальность видимости в метрах или километрах. При видимости от 1 до 10 км при отсутствии осадков обычно наблюдается дымка, при ухудшении видимости до 1 км и менее - туман. В сухую погоду видимость может ухудшаться дымом, пылью или мглою.
Явления - указаны атмосферные явления, наблюдавшиеся в срок или в последний час перед сроком; фигурными скобками обозначены явления, наблюдавшиеся между сроками (за 1-3 часа до срока); квадратными скобками обозначены град или гололедные отложения с указанием их диаметра в мм.
Облачность - указаны через наклонную черту общая и нижняя облачность в баллах и высота нижней границы облаков в метрах; квадратными скобками обозначены формы облаков: Ci - перистые, Cs - перисто-слоистые, Cc - перисто-кучевые, Ac - высококучевые, As - высокослоистые, Sc - слоисто-кучевые, Ns - слоисто-дождевые, Cu - кучевые, Cb - кучево-дождевые. Подробнее классификацию облаков см. в Атласе облаков (PDF).
T - Температура воздуха - температура, измеренная на высоте 2 м над землей.
Td - Температура точки росы - температура, при понижении до которой содержащийся в воздухе водяной пар достигнет насыщения.
f - Относительная влажность воздуха - влажноcть воздуха, измеренная на высоте 2 м над землей.
Te - Эффективная температура - температура, которую ощущает одетый по сезону человек в тени. Характеристика душности погоды. При расчете учитывается влияние влажности воздуха и скорости ветра на теплоощущения человека.
Tes - Эффективная температура на солнце - температура, которую ощущает человек, с поправкой на солнечный нагрев. Характеристика знойности погоды. Зависит от высоты солнца над горизонтом, облачности и скорости ветра. Ночью, в пасмурную погоду, а также при ветре 12 м/с и более поправка равна нулю.
P - Атмосферное давление - приведенное к уровню моря атмосферное давление.
Po - Атмосферное давление - измеренное на уровне метеостанции атмосферное давление.
Tmin - Минимальная температура - минимум температуры воздуха на высоте 2 м над землей.
Tmax - Максимальная температура - максимум температуры воздуха на высоте 2 м над землей.
R - Количество осадков - Количество выпавших осадков за период времени, мм. При наведении курсора мыши на число - период времени, за который выпало указанное количество осадков.
R24 - Количество осадков - Количество выпавших осадков за 24 часа, мм.
S - Снежный покров - Высота снежного покрова, см. При наведении курсора мыши на число - состояние снежного покрова и степень покрытия местности в баллах.